{"data":{"norad_id":67721,"epoch":"2026-09-20T10:06:14.578848Z","epoch_age_seconds":100873,"freshness":"FRESH","line1":"1 67721U 26026A   26263.42100207  .00006188  00000+0  19372-3 0  9991","line2":"2 67721  97.2847 315.1779 0001389 294.1118  65.9980 15.33462869 33967","mean_motion":15.33462869,"eccentricity":0.0001389,"inclination_deg":97.2847,"raan_deg":315.1779,"arg_perigee_deg":294.1118,"mean_anomaly_deg":65.998,"bstar":0.00019372,"rev_number":3396,"period_min":93.905110394949,"perigee_km":464.5394296307,"apogee_km":466.44058921392,"semimajor_km":6843.6270094223,"source":"CELESTRAK","updated_at":"2026-09-21T09:00:36.265506Z"}}